sat.trackr.live / text

‹ back to catalog

ONEWEB-0686

NORAD 56721 · 2023-068M

PAYLOAD ACTIVE UNKNOWN

§ Identity

Operator
Country
UK
Launch date
2023-05-20
Launch site
AFWTR
Launch vehicle
Mass (kg)
RCS (m²)

Purposes: comms

External: N2YO · Heavens-Above · Gunter

§ Orbital elements

Epoch: 2026-09-19T16:02:22.613856Z

Period
109.37 min
Inclination
87.9140°
Eccentricity
0.0001713
Mean motion
13.16594144 rev/d
Perigee alt
1,196.5 km
Apogee alt
1,199.1 km
Semi-major
7,575.9 km
B*
-3.4765e-5
RAAN
210.0274°
Arg perigee
74.2441°
Mean anomaly
285.8879°
Rev number
16,414

§ Raw data

ONEWEB-06861 56721U 23068M   26262.66831729  .00000000  00000+0 -34765-4 0  99992 56721  87.9140 210.0274 0001713  74.2441 285.8879 13.16594144164143

JSON: /api/v1/satellites/56721 · /tle

For live sub-satellite position, see the globe view (requires WebGL).

§ Visibility from observer

Set your observer location to see the next 7 days of passes ≥ 10°. The values pass through the URL so the page stays shareable.

No JS? Fill the form by hand. The geolocation button needs JavaScript.